KJ7AZ-3 Weather Reports


time (UTC)temp
C
wind
direction
speed
KPH
gust
KPH
rain 1hr
cm
rain 24hr
cm
rain mn
cm
humidity
%
barometer
mb
20260901104839 15 6 0.0 0.0 0.00 0.03 0.00
20260901103339 15 6 0.0 0.0 0.00 0.03 0.00
20260901101839 15 6 0.0 0.0 0.00 0.03 0.00
20260901100339 15 6 0.0 0.0 0.00 0.03 0.00
20260901094839 15 6 0.0 0.0 0.00 0.03 0.00
20260901093339 15 6 0.0 0.0 0.00 0.03 0.00
20260901091839 15 6 0.0 0.0 0.00 0.03 0.00
20260901090339 15 6 0.0 0.0 0.00 0.03 0.00
20260901084839 16 6 0.0 0.0 0.00 0.03 0.00
20260901083339 15 6 0.0 0.0 0.00 0.03 0.00
20260901081840 16 6 0.0 0.0 0.00 0.03 0.00
20260901080339 16 6 0.0 0.0 0.00 0.03 0.00
20260901074840 16 6 0.0 0.0 0.00 0.03 0.00
20260901073339 16 6 0.0 0.0 0.00 0.03 0.00
20260901071840 16 290 0.0 3.2 0.00 0.03 0.00
20260901070340 16 302 4.8 1.6 0.00 0.03 0.00
20260901064840 16 37 0.0 0.0 0.00 0.03 0.00
20260901063340 16 46 0.0 0.0 0.00 0.03 0.00
20260901061840 16 46 0.0 0.0 0.00 0.03 0.00
20260901060340 16 135 1.6 3.2 0.00 0.03 0.00
20260901054841 19 90 1.6 1.6 0.00 0.00 0.03
20260901053341 18 214 4.8 0.0 0.00 0.00 0.03
20260901051841 18 94 3.2 0.0 0.00 0.00 0.03
20260901050341 18 132 1.6 4.8 0.00 0.00 0.03
20260901044841 18 121 4.8 1.6 0.00 0.00 0.03
20260901043342 18 108 3.2 9.7 0.00 0.00 0.03
20260901041842 20 155 3.2 9.7 0.00 0.00 0.03
20260901034842 18 194 4.8 4.8 0.00 0.00 0.03
20260901033342 18 163 8.0 6.4 0.00 0.00 0.03
20260901031842 18 172 9.7 9.7 0.00 0.00 0.03
20260901030342 18 193 14.5 12.9 0.00 0.00 0.03
20260901024842 18 194 12.9 11.3 0.00 0.00 0.03
20260901023342 17 165 12.9 17.7 0.00 0.00 0.03
20260901021842 19 208 17.7 14.5 0.00 0.00 0.03
20260901020342 20 224 9.7 11.3 0.00 0.00 0.03
20260901013341 24 183 8.0 4.8 0.00 0.00 0.03
20260901010340 26 31 0.0 0.0 0.00 0.00 0.03
20260901004840 27 31 0.0 0.0 0.00 0.00 0.03
20260901003340 27 32 3.2 1.6 0.00 0.00 0.03
20260901001840 29 72 0.0 0.0 0.00 0.00 0.03
20260901000339 30 113 1.6 0.0 0.00 0.00 0.03
20260831234839 30 139 3.2 1.6 0.00 0.00 0.03
20260831233339 31 165 1.6 3.2 0.00 0.00 0.03
20260831231838 32 162 4.8 1.6 0.00 0.00 0.03
20260831230339 31 180 1.6 4.8 0.00 0.00 0.03
20260831224838 28 129 1.6 0.0 0.03 0.00 0.03
20260831223337 26 150 0.0 0.0 0.03 0.00 0.03
20260831220336 23 228 0.0 3.2 0.03 0.00 0.03
20260831214836 23 248 0.0 0.0 0.00 0.00 0.03
20260831213335 27 197 0.0 4.8 0.00 0.00 0.00
20260831210334 30 165 1.6 1.6 0.00 0.00 0.00
20260831204833 30 97 9.7 0.0 0.00 0.00 0.00
20260831203333 30 91 1.6 0.0 0.00 0.00 0.00
20260831201832 30 120 3.2 8.0 0.00 0.00 0.00
20260831200331 30 146 8.0 4.8 0.00 0.00 0.00
20260831194831 30 65 1.6 1.6 0.00 0.00 0.00
20260831193329 31 131 3.2 3.2 0.00 0.00 0.00
20260831191829 32 96 3.2 0.0 0.00 0.00 0.00
20260831190329 32 150 1.6 0.0 0.00 0.00 0.00
20260831184827 31 103 0.0 3.2 0.00 0.00 0.00
20260831183327 32 108 0.0 0.0 0.00 0.00 0.00
20260831181825 32 58 0.0 1.6 0.00 0.00 0.00
20260831180325 32 28 4.8 1.6 0.00 0.00 0.00
20260831174823 33 359 6.4 6.4 0.00 0.00 0.00
20260831163320 31 103 1.6 0.0 0.00 0.00 0.00
20260831161819 31 39 0.0 0.0 0.00 0.00 0.00
20260831160319 32 56 3.2 0.0 0.00 0.00 0.00
20260831154819 32 42 0.0 0.0 0.00 0.00 0.00
20260831153319 29 101 0.0 0.0 0.00 0.00 0.00
20260831143317 27 122 1.6 0.0 0.00 0.00 0.00
20260831141817 26 111 0.0 0.0 0.00 0.00 0.00